Lapse_Rate
1.1 1.5 1.8 1.9 2.1 1.9 2.0 1.7 1.3 1.9 2.5 2.9 3.2 4.5 4.3 4.8 3.7 3.5 3.2 2.7 0.8 -0.3 0.3 4.2 4.5 3.5 4.0 4.4 4.5 5.7 6.5 6.5 6.5 6.5 6.5 7.4 6.9 7.9 8.4 7.8 7.9 8.3 8.1 8.4 7.7
1.0 1.4 1.7 2.4 2.5 2.4 2.8 2.6 2.8 2.6 3.5 3.1 2.2 1.6 3.9 5.0 3.0 5.2 4.5 1.8 0.7 0.2 4.1 4.7 3.4 2.9 5.0 6.9 7.1 7.1 6.5 6.5 6.7 6.9 6.5 7.2 7.2 7.4 7.3 7.4 7.5 7.9 8.5 7.8 7.5
0.9 1.4 2.7 2.3 2.6 3.1 3.7 3.6 3.4 3.3 3.7 5.2 2.9 1.3 2.7 3.7 5.0 6.4 4.2 1.8 1.2 1.3 2.9 2.8 2.2 4.3 7.2 7.7 7.4 7.1 6.5 6.8 7.1 7.5 7.6 7.2 7.3 7.7 7.2 6.6 7.5 7.4 8.0 7.7 7.7
0.9 2.0 2.9 2.8 3.1 3.5 4.1 4.5 4.8 4.6 3.3 5.1 5.3 5.0 4.5 4.1 6.5 6.1 3.2 1.4 1.3 3.2 3.8 3.5 3.8 6.0 6.9 6.5 7.4 6.6 7.2 7.2 7.4 7.5 7.4 7.0 7.6 7.2 7.4 7.5 8.2 7.5 6.8 6.8 6.8
1.3 2.6 3.7 3.3 3.8 4.1 3.8 4.5 5.7 5.1 5.3 4.2 4.2 4.1 2.7 5.3 6.1 5.2 2.0 1.5 1.8 2.4 1.5 3.1 4.1 7.3 6.5 7.0 7.3 6.6 7.0 7.4 7.6 7.5 7.5 7.6 7.2 7.2 7.4 8.0 7.9 7.4 6.9 6.7 6.7
1.0 2.4 3.2 4.0 4.4 4.4 3.8 4.5 5.5 5.0 5.2 6.2 4.9 4.0 3.7 6.5 6.2 4.7 1.8 2.6 1.6 2.3 1.5 2.3 5.3 6.6 7.2 7.0 6.7 7.2 7.3 7.3 7.5 7.5 7.5 7.1 7.1 7.3 7.6 8.1 7.5 7.1 6.7 6.6 6.7
1.1 2.8 3.6 4.5 5.0 3.9 4.1 5.1 5.6 5.9 5.1 4.2 3.9 3.7 4.3 6.6 5.5 4.8 2.5 3.3 2.1 3.1 3.0 3.0 4.6 5.1 7.7 7.0 7.8 7.4 6.5 6.9 7.0 7.2 7.0 7.4 6.5 6.5 7.8 8.0 7.6 7.2 7.1 7.1 6.9
1.6 3.0 4.0 4.8 4.5 4.9 4.8 4.8 6.1 5.8 5.1 5.5 4.6 4.0 6.8 5.8 4.8 4.5 3.9 6.5 4.8 4.0 3.8 4.0 4.1 4.4 7.0 7.8 7.1 6.5 6.5 6.5 6.7 7.0 6.9 6.9 6.5 6.9 7.8 7.7 7.6 7.7 7.2 7.2 7.5
1.6 2.8 3.9 4.7 4.6 6.0 5.6 4.7 5.4 6.0 5.9 4.8 4.2 4.3 6.5 6.7 5.8 4.1 3.4 4.3 4.7 4.5 3.8 3.4 3.3 6.5 6.8 6.5 6.5 6.5 6.5 6.5 6.5 7.0 6.7 6.7 6.5 7.0 7.7 7.7 7.5 7.7 7.9 7.9 7.7
1.7 3.0 3.8 4.4 4.0 5.1 4.6 4.4 5.1 5.2 3.4 4.2 4.1 5.8 7.2 7.2 5.1 3.9 3.9 2.6 2.2 2.5 2.7 3.1 6.0 6.6 6.5 6.5 6.5 6.5 6.5 6.5 6.5 6.5 6.5 6.5 6.5 6.9 7.5 7.6 7.5 7.7 7.8 7.9 8.1
1.5 3.4 3.9 5.1 3.8 4.1 3.9 3.1 3.8 4.7 4.0 5.4 5.6 5.6 6.1 6.3 5.2 4.9 2.7 4.5 4.8 5.6 6.5 7.2 6.5 6.5 6.5 6.5 6.5 6.5 6.5 6.5 6.5 6.5 6.5 6.5 6.5 6.5 7.3 7.4 7.5 7.6 7.7 7.9 8.0
1.2 3.3 4.3 4.9 4.2 2.9 1.3 2.5 3.8 4.4 6.1 4.8 5.5 5.7 5.4 4.8 5.6 5.5 4.7 5.4 6.4 6.5 6.8 6.5 6.5 6.5 6.7 6.5 6.5 6.5 6.5 6.5 6.5 6.5 6.5 6.5 6.5 6.5 7.1 7.3 7.5 7.6 7.7 7.8 8.0
1.2 2.9 4.3 4.9 4.9 1.0 0.8 1.8 1.1 2.7 5.0 6.0 5.6 5.7 6.0 5.6 5.9 6.1 5.3 5.3 6.8 6.5 6.5 6.5 6.5 6.9 6.5 6.5 6.5 6.5 6.5 6.5 6.5 6.5 6.5 6.5 6.5 6.5 6.8 7.4 7.6 7.7 7.8 7.9 7.7
0.8 2.2 4.1 5.0 2.7 0.3 2.8 1.0 0.6 2.2 6.5 6.5 6.4 6.5 6.1 5.3 6.4 5.0 5.0 6.0 6.8 6.5 6.5 6.5 6.8 6.5 6.5 6.5 6.5 6.5 6.5 6.5 6.5 6.5 6.5 6.5 6.5 6.5 6.5 6.5 7.1 7.4 7.7 7.9 8.0
0.3 1.6 2.0 6.0 1.2 2.4 2.6 -0.1 0.9 3.4 6.5 6.5 6.5 6.6 5.2 6.4 6.6 6.8 4.4 5.9 6.5 6.5 6.5 6.5 6.5 6.5 6.5 6.5 6.5 6.5 6.5 6.5 6.5 6.5 6.5 6.5 6.5 6.5 6.5 6.5 6.5 7.1 7.4 7.7 8.0
1.0 1.8 2.3 1.9 0.2 0.4 -0.8 -0.2 2.5 6.5 6.5 6.5 6.4 6.4 6.5 6.1 6.2 6.0 5.7 5.4 5.9 6.6 6.7 6.5 6.9 6.6 6.5 6.6 6.6 6.7 6.5 6.5 6.5 6.5 6.5 6.5 6.5 6.5 6.5 6.5 6.5 7.1 7.4 7.1 6.9
1.6 1.7 2.2 0.2 2.6 -0.5 -1.0 1.9 6.5 6.5 6.5 6.5 6.5 6.5 6.5 6.5 6.5 6.6 6.5 6.5 6.5 6.5 6.5 6.5 6.5 6.8 6.9 6.5 6.6 6.5 6.5 6.5 6.5 6.5 6.5 6.5 6.5 6.5 6.5 6.5 6.8 7.0 7.5 7.7 7.7
1.4 3.0 0.0 -1.0 -0.9 -0.5 1.1 6.1 6.5 6.5 6.5 6.5 6.5 6.5 6.5 6.5 6.5 6.5 6.5 6.5 6.5 6.5 6.5 6.5 6.5 6.5 6.7 6.5 6.5 6.5 6.5 6.5 6.5 6.5 6.5 6.5 6.5 6.5 6.5 7.1 7.3 7.5 7.6 7.2 7.9
2.0 -0.3 -0.1 -0.1 -0.5 -0.1 3.6 6.5 6.5 6.5 6.5 6.5 6.5 6.5 6.5 6.5 6.5 6.5 6.5 6.5 6.5 6.5 6.5 6.5 6.5 6.6 6.7 6.8 6.6 6.5 6.5 6.5 6.5 6.5 6.5 6.5 6.5 6.5 6.5 6.6 7.0 7.2 7.4 7.5 7.4
1.1 0.7 1.2 -0.3 -0.3 1.2 5.5 6.5 6.5 6.2 6.4 6.5 6.5 6.5 6.5 6.5 6.5 6.5 6.5 6.5 6.5 6.7 6.8 6.5 6.5 6.5 6.5 6.9 6.8 6.5 6.6 6.5 6.5 6.5 6.5 6.5 6.5 6.5 6.5 6.5 6.6 6.9 7.2 7.5 7.2
1.0 3.2 1.8 -0.3 0.4 2.7 6.5 6.5 6.5 6.1 6.1 6.5 6.5 6.5 6.5 6.5 6.5 6.5 6.5 6.5 6.7 6.6 6.9 6.5 6.5 6.5 6.5 6.5 6.5 6.5 6.5 6.5 6.5 6.5 6.5 6.5 6.5 6.5 6.5 6.5 6.5 7.0 7.4 7.5 7.6
1.2 5.1 1.3 0.2 4.6 5.3 6.5 6.5 6.0 6.2 5.9 6.3 6.3 6.5 6.5 6.5 6.5 6.5 6.5 6.5 5.8 6.4 6.5 6.6 6.5 6.5 6.5 6.5 6.7 6.5 6.5 6.5 6.5 6.5 6.5 6.5 6.5 6.5 6.6 6.9 7.1 7.2 7.5 7.6 7.0
2.0 2.5 1.0 2.3 6.5 6.5 6.0 6.5 6.2 6.4 6.4 6.5 6.5 6.5 6.5 6.5 6.5 6.5 6.5 6.2 5.8 6.6 6.5 6.6 6.5 6.5 6.5 6.5 6.5 6.5 6.5 6.5 6.5 6.5 6.5 6.5 6.5 6.7 6.9 6.9 7.2 7.2 7.2 6.9 6.6
2.3 6.0 2.5 1.1 2.3 6.0 6.5 6.5 6.5 5.9 6.1 6.0 6.3 6.3 6.5 6.5 6.5 6.5 6.5 6.6 6.3 6.5 6.3 6.5 6.5 6.5 6.5 6.5 6.5 6.5 6.5 6.5 6.5 6.5 6.5 6.5 6.5 6.5 6.5 6.5 6.7 6.2 5.7 5.9 6.4
1.1 4.0 3.5 6.5 5.8 5.8 6.1 6.5 6.5 6.5 6.2 6.0 6.5 6.5 6.5 6.5 6.5 6.5 6.5 6.5 6.7 7.1 6.5 6.7 6.5 6.5 6.5 6.5 6.5 6.5 6.5 6.5 6.5 6.5 6.5 6.5 6.5 6.5 6.5 6.3 4.8 4.3 5.7 5.9 6.6
2.8 3.9 2.7 4.5 4.8 6.2 6.2 6.5 6.5 6.5 6.4 6.5 6.5 6.5 6.5 6.5 6.5 6.5 6.5 6.5 6.5 6.7 6.5 6.8 6.5 6.5 6.5 6.5 6.5 6.5 6.5 6.5 6.5 6.5 6.5 6.5 6.5 6.4 7.1 5.7 4.7 4.4 5.3 5.2 6.2
-1.2 -0.1 3.4 5.0 5.9 6.5 6.5 6.5 6.5 5.9 5.7 6.1 6.2 6.5 6.5 6.4 5.6 5.1 5.0 5.1 6.3 6.5 6.5 6.5 6.5 6.5 6.5 6.5 6.5 6.5 6.5 6.5 6.5 6.5 6.5 6.5 6.5 6.7 6.6 6.7 4.8 3.9 5.3 4.1 5.5
Wind_Speed
12 11 12 15 18 18 19 20 20 18 14 13 11 2 5 7 16 31 21 13 15 34 16 5 24 10 19 8 11 3 6 6 4 3 6 5 6 11 11 18 12 7 8 5 9
11 10 12 17 17 17 18 21 22 20 17 15 15 2 3 6 7 28 19 34 29 23 7 17 16 22 8 9 7 7 5 4 1 9 10 8 8 7 6 10 10 10 9 7 8
10 12 15 14 16 18 18 19 20 21 18 17 17 10 3 2 13 10 33 37 29 12 7 8 13 18 16 13 9 6 7 12 15 19 15 10 11 2 6 9 6 6 7 8 10
11 10 13 15 15 15 16 18 18 21 23 16 15 28 24 7 8 12 37 32 24 9 9 10 9 8 8 10 7 14 11 10 11 6 6 6 6 8 7 6 6 6 5 7 11
10 12 13 13 13 14 16 16 15 16 26 22 18 11 8 19 6 11 27 27 16 8 11 14 20 9 12 15 24 19 12 11 14 14 11 11 9 9 9 6 6 6 6 7 7
12 10 11 12 14 16 16 14 13 14 18 30 18 12 7 27 3 14 19 22 21 16 17 8 13 21 14 5 8 12 20 14 7 9 6 11 5 2 4 5 5 4 4 4 6
12 12 13 14 16 17 16 14 15 14 16 15 13 11 27 7 5 14 12 14 11 17 12 6 5 12 13 20 17 18 15 9 4 2 4 4 2 5 5 5 4 2 1 2 2
12 11 12 14 17 17 14 12 15 15 10 13 17 9 9 4 6 19 9 13 19 13 13 10 16 16 6 19 5 4 3 2 4 2 2 4 3 7 5 7 7 6 3 2 1
11 11 12 15 17 12 14 19 9 14 19 8 8 6 6 9 8 6 13 4 4 7 18 9 10 10 3 6 5 7 3 4 2 3 2 1 4 8 6 9 9 7 6 6 5
11 11 14 17 16 11 5 6 20 11 9 3 5 5 6 8 4 7 5 13 10 5 8 13 8 10 9 3 4 4 3 2 3 4 4 3 8 6 9 10 11 9 8 9 9
12 12 13 17 19 12 3 3 5 7 11 7 2 7 2 3 4 11 5 6 9 13 8 14 14 14 11 11 7 6 2 3 3 3 3 5 9 10 10 10 13 12 11 11 12
12 11 11 10 22 12 7 5 2 3 7 6 4 4 2 2 5 18 11 8 10 7 5 10 13 3 5 6 5 4 3 2 4 2 3 3 12 9 12 15 14 14 13 13 11
12 11 9 6 4 10 6 3 4 4 5 4 2 4 3 6 6 10 5 3 11 18 15 11 4 5 2 3 2 2 5 3 4 3 1 9 5 5 9 15 13 14 15 13 13
13 12 10 2 8 2 3 4 3 2 4 8 6 5 4 2 6 3 3 3 4 4 5 8 2 3 3 4 3 4 5 4 2 2 3 6 5 4 3 10 13 16 16 16 15
14 8 17 6 6 3 3 7 2 3 4 4 3 1 3 6 2 8 4 7 6 3 1 2 1 3 5 2 3 3 3 1 2 1 3 2 3 4 3 6 9 10 13 15 14
13 9 4 6 3 2 9 2 3 4 2 1 2 2 3 5 3 2 6 8 3 5 10 3 0 1 1 1 2 4 1 2 2 0 1 2 3 5 3 4 5 6 8 11 11
8 15 6 2 1 11 5 3 4 5 2 0 1 2 3 3 4 5 4 6 3 1 5 1 1 1 1 2 1 5 2 2 2 2 3 0 4 9 9 10 11 13 14 12 10
10 6 9 5 9 6 3 4 6 2 3 1 2 2 3 1 2 3 2 3 4 3 3 3 0 0 0 2 2 5 5 3 4 4 6 1 6 4 5 6 10 12 12 11 10
3 3 3 9 14 2 4 4 6 5 4 5 2 2 1 1 3 3 3 1 0 2 2 2 1 1 1 2 1 1 3 1 1 0 4 3 6 12 6 7 6 8 7 9 6
2 2 2 15 11 4 4 3 2 2 2 2 4 2 3 1 1 1 2 2 3 1 0 3 2 1 3 2 7 1 6 1 2 5 5 4 5 6 5 4 7 8 7 6 5
3 3 3 15 2 4 3 3 3 2 1 2 4 3 2 3 2 2 3 1 3 3 2 3 1 2 2 5 5 3 3 3 2 1 3 5 7 7 8 5 8 10 7 5 7
2 2 3 4 3 1 2 3 2 3 2 1 3 2 4 5 3 3 3 1 4 5 2 1 2 3 1 1 2 2 3 4 2 2 2 2 8 3 7 6 7 10 8 7 6
2 0 2 2 3 0 2 1 1 2 2 3 2 1 1 4 2 2 3 1 3 3 4 5 1 4 3 2 0 4 5 4 5 2 6 2 7 3 4 6 8 10 8 7 7
2 2 3 3 1 5 4 3 2 2 2 3 3 2 2 2 1 4 4 3 2 2 6 3 2 4 4 2 2 4 6 10 6 4 4 10 15 18 15 7 11 7 5 6 5
3 1 1 1 2 3 3 4 3 3 0 1 1 3 4 3 2 3 2 2 1 7 2 2 3 4 10 13 10 11 13 13 12 5 7 2 7 20 18 9 6 4 4 5 5
3 3 2 1 2 4 1 5 7 3 5 3 3 5 5 5 5 6 6 5 4 3 4 1 2 1 5 3 3 12 14 15 17 9 13 18 23 17 12 2 5 7 6 7 6
1 1 2 1 2 3 4 5 6 5 4 1 4 4 4 5 3 1 2 3 6 8 8 4 2 1 4 3 9 7 6 14 7 9 6 7 10 3 6 7 6 5 7 7 7
Wind_Direction
44 42 45 38 35 32 33 33 35 37 35 29 8 8 72 36 22 43 35 324 308 312 321 73 49 55 55 48 43 59 78 85 114 130 114 131 105 65 75 81 65 76 75 48 15
42 45 36 36 31 32 33 35 36 34 30 30 18 38 130 55 35 40 349 345 335 334 62 84 64 55 56 27 33 59 81 68 89 111 119 95 102 105 93 80 77 81 70 56 42
44 43 39 29 32 33 32 31 33 34 32 31 30 62 136 3 37 355 341 339 339 357 66 88 83 73 63 48 20 46 99 115 95 109 107 100 77 133 113 61 53 70 62 48 45
43 41 32 30 33 33 31 29 32 39 42 38 40 54 56 53 53 326 330 334 353 36 80 54 52 63 69 68 50 98 85 105 123 114 104 93 96 88 75 109 101 79 69 52 41
44 40 35 33 32 29 24 26 29 35 38 48 58 47 40 67 57 313 338 359 20 50 55 91 76 89 91 101 83 92 96 86 104 94 92 110 98 109 106 122 116 102 75 56 46
40 45 43 38 32 22 24 34 38 47 57 47 60 69 62 69 268 328 342 20 26 63 59 76 95 103 79 83 67 116 113 110 94 105 134 115 127 180 157 139 115 96 76 60 38
39 44 41 35 22 20 36 53 54 58 63 71 63 75 64 69 321 332 4 39 32 52 77 18 113 96 106 91 108 117 106 107 76 103 130 97 114 147 149 152 146 155 170 70 28
36 38 35 25 17 26 49 69 65 56 64 74 69 58 81 305 2 27 1 54 47 53 79 70 88 91 70 120 82 85 83 87 39 21 19 205 300 190 171 180 193 207 223 257 293
35 31 27 20 20 29 66 56 74 62 45 65 38 81 52 344 8 339 34 20 19 44 48 56 59 75 86 99 92 34 83 69 179 34 313 335 287 200 194 203 221 220 227 241 258
33 29 22 20 20 12 45 53 51 48 5 29 84 61 10 7 335 333 345 42 42 4 28 29 57 82 48 30 57 26 39 40 326 348 344 275 263 212 207 216 237 240 238 246 248
29 31 25 34 27 26 47 22 23 13 27 71 313 82 32 323 47 15 344 12 27 53 55 23 72 58 42 54 84 94 111 229 258 321 265 242 268 227 215 231 244 245 247 250 248
24 26 26 31 40 53 68 73 125 147 69 33 57 67 78 90 36 16 23 56 34 69 38 64 78 129 90 71 98 160 182 276 256 351 244 292 269 239 228 239 245 257 259 256 253
23 21 13 26 46 41 75 56 317 135 79 13 38 52 3 49 50 6 40 88 69 67 68 84 108 155 147 63 282 59 19 282 278 335 70 313 276 250 241 247 257 257 259 261 254
20 28 14 31 47 307 54 340 338 166 77 341 352 22 17 110 57 8 34 114 67 111 84 75 96 98 89 57 330 342 338 264 236 303 332 346 296 281 311 277 252 262 261 260 257
12 27 45 66 145 64 324 334 114 54 71 331 3 317 22 75 141 31 16 41 74 55 227 81 42 37 48 14 327 335 6 68 103 91 300 47 272 272 308 285 280 266 272 274 265
15 18 5 35 51 14 322 330 49 45 83 49 6 20 56 23 49 338 40 42 125 65 50 94 360 11 26 191 326 317 179 91 95 335 297 23 340 276 254 257 281 279 299 297 277
21 39 54 54 77 329 337 45 37 85 320 307 93 68 84 24 40 33 44 37 48 91 36 16 16 335 335 298 301 358 357 324 307 333 346 100 276 259 260 259 261 285 297 295 284
47 64 55 59 347 342 50 58 72 206 202 164 120 105 93 32 58 24 84 67 61 57 95 23 41 166 34 40 355 23 7 47 295 321 314 317 240 256 241 281 272 272 283 288 298
41 21 40 345 357 18 72 69 189 204 158 152 96 88 19 52 114 85 47 119 4 37 38 358 223 129 27 115 301 46 47 56 172 163 271 259 269 276 258 268 270 282 290 297 314
72 56 354 338 350 56 74 171 161 202 143 141 169 184 177 224 156 107 185 169 158 128 207 168 283 160 136 114 54 305 133 128 51 348 304 289 277 261 296 299 323 313 310 315 319
60 59 275 343 36 47 134 195 197 215 147 151 191 146 174 191 178 193 170 174 185 145 110 139 202 128 148 202 182 156 153 79 131 169 311 313 289 215 245 284 307 311 303 295 314
96 53 311 350 54 24 135 191 175 160 125 105 109 127 170 166 169 174 190 216 154 154 144 133 157 261 244 78 200 202 180 175 188 175 222 281 273 236 243 270 287 300 295 282 297
83 73 331 51 127 17 264 77 144 136 172 146 135 145 165 172 157 156 146 314 154 144 166 169 176 299 194 168 211 229 191 160 114 110 213 229 277 161 228 268 300 303 292 278 290
98 40 342 48 39 134 153 197 191 356 137 124 129 107 117 153 30 173 168 171 155 120 116 144 180 228 242 268 123 207 194 197 179 194 184 233 281 295 308 301 316 310 275 277 282
36 202 180 251 284 137 136 150 156 207 8 172 76 202 168 167 174 198 144 148 89 143 91 188 255 219 264 269 260 253 245 205 205 179 224 311 250 286 296 296 280 258 256 257 272
133 145 37 86 59 116 85 208 185 182 162 228 206 182 189 178 193 193 164 200 196 170 173 163 250 276 277 177 208 265 244 222 227 221 256 266 282 280 284 256 247 253 247 252 263
148 72 115 349 111 123 221 201 208 160 204 206 185 131 200 231 173 75 124 106 162 162 180 174 201 329 269 300 300 269 232 192 187 198 178 211 239 321 290 280 259 256 233 238 249